| time (UTC) | temp F | wind direction | speed MPH | gust MPH | rain 1hr in | rain 24hr in | rain mn in | humidity % | barometer mb |
| 20260510014650 | 61 | 333 | 10.0 | 19.0 | 0.00 | 0.00 | 0.00 | 75 | 1012.7 |
| 20260510014151 | 62 | 322 | 10.0 | 19.0 | 0.00 | 0.00 | 0.00 | 75 | 1012.6 |
| 20260510013650 | 62 | 316 | 12.0 | 19.0 | 0.00 | 0.00 | 0.00 | 74 | 1012.7 |
| 20260510013150 | 62 | 344 | 12.0 | 19.0 | 0.00 | 0.00 | 0.00 | 74 | 1012.6 |
| 20260510012650 | 62 | 320 | 9.0 | 19.0 | 0.00 | 0.00 | 0.00 | 74 | 1012.6 |
| 20260510012151 | 62 | 285 | 10.0 | 19.0 | 0.00 | 0.00 | 0.00 | 74 | 1012.6 |
| 20260510011650 | 62 | 331 | 12.0 | 20.0 | 0.00 | 0.00 | 0.00 | 73 | 1012.6 |
| 20260510011151 | 63 | 324 | 10.0 | 20.0 | 0.00 | 0.00 | 0.00 | 73 | 1012.7 |
| 20260510010650 | 63 | 341 | 10.0 | 20.0 | 0.00 | 0.00 | 0.00 | 72 | 1012.7 |
| 20260510010150 | 63 | 312 | 10.0 | 15.0 | 0.00 | 0.00 | 0.00 | 72 | 1012.7 |
| 20260510005650 | 63 | 310 | 8.0 | 14.0 | 0.00 | 0.00 | 0.00 | 72 | 1012.7 |
| 20260510005150 | 63 | 331 | 10.0 | 19.0 | 0.00 | 0.00 | 0.00 | 72 | 1012.7 |
| 20260510004650 | 63 | 336 | 10.0 | 19.0 | 0.00 | 0.00 | 0.00 | 72 | 1012.6 |
| 20260510004151 | 63 | 324 | 11.0 | 19.0 | 0.00 | 0.00 | 0.00 | 71 | 1012.6 |
| 20260510003650 | 64 | 313 | 10.0 | 20.0 | 0.00 | 0.00 | 0.00 | 70 | 1012.7 |
| 20260510003151 | 64 | 319 | 10.0 | 20.0 | 0.00 | 0.00 | 0.00 | 70 | 1012.7 |
| 20260510002650 | 64 | 330 | 13.0 | 20.0 | 0.00 | 0.00 | 0.00 | 69 | 1012.7 |
| 20260510002150 | 64 | 319 | 12.0 | 20.0 | 0.00 | 0.00 | 0.00 | 68 | 1012.7 |
| 20260510001650 | 65 | 329 | 12.0 | 20.0 | 0.00 | 0.00 | 0.00 | 67 | 1012.7 |
| 20260510001201 | 65 | 310 | 12.0 | 21.0 | 0.00 | 0.00 | 0.00 | 67 | 1012.6 |
| 20260510001151 | 65 | 310 | 12.0 | 21.0 | 0.00 | 0.00 | 0.00 | 67 | 1012.6 |
| 20260510000651 | 65 | 324 | 11.0 | 21.0 | 0.00 | 0.00 | 0.00 | 67 | 1012.7 |
| 20260510000150 | 65 | 315 | 12.0 | 21.0 | 0.00 | 0.00 | 0.00 | 67 | 1012.5 |
| 20260509235650 | 65 | 319 | 12.0 | 19.0 | 0.00 | 0.00 | 0.00 | 68 | 1012.6 |
| 20260509235151 | 65 | 316 | 11.0 | 19.0 | 0.00 | 0.00 | 0.00 | 68 | 1012.6 |
| 20260509234650 | 64 | 326 | 10.0 | 19.0 | 0.00 | 0.00 | 0.00 | 69 | 1012.6 |
| 20260509234151 | 64 | 345 | 14.0 | 22.0 | 0.00 | 0.00 | 0.00 | 69 | 1012.6 |
| 20260509233650 | 64 | 323 | 13.0 | 22.0 | 0.00 | 0.00 | 0.00 | 70 | 1012.6 |
| 20260509233152 | 64 | 305 | 12.0 | 22.0 | 0.00 | 0.00 | 0.00 | 71 | 1012.6 |
| 20260509232150 | 63 | 331 | 11.0 | 23.0 | 0.00 | 0.00 | 0.00 | 72 | 1012.7 |
| 20260509231650 | 63 | 326 | 12.0 | 23.0 | 0.00 | 0.00 | 0.00 | 72 | 1012.8 |
| 20260509231154 | 63 | 319 | 13.0 | 23.0 | 0.00 | 0.00 | 0.00 | 72 | 1012.8 |
| 20260509230650 | 63 | 322 | 14.0 | 22.0 | 0.00 | 0.00 | 0.00 | 72 | 1013.0 |
| 20260509230150 | 64 | 330 | 15.0 | 21.0 | 0.00 | 0.00 | 0.00 | 71 | 1013.1 |
| 20260509225652 | 64 | 323 | 14.0 | 24.0 | 0.00 | 0.00 | 0.00 | 71 | 1013.1 |
| 20260509225150 | 64 | 312 | 14.0 | 24.0 | 0.00 | 0.00 | 0.00 | 70 | 1013.1 |
| 20260509224651 | 65 | 334 | 12.0 | 24.0 | 0.00 | 0.00 | 0.00 | 70 | 1013.2 |
| 20260509224153 | 65 | 317 | 13.0 | 20.0 | 0.00 | 0.00 | 0.00 | 68 | 1013.1 |
| 20260509223651 | 66 | 330 | 13.0 | 20.0 | 0.00 | 0.00 | 0.00 | 68 | 1013.2 |
| 20260509223150 | 66 | 312 | 12.0 | 19.0 | 0.00 | 0.00 | 0.00 | 68 | 1013.0 |
| 20260509222650 | 66 | 334 | 10.0 | 19.0 | 0.00 | 0.00 | 0.00 | 67 | 1012.9 |
| 20260509222150 | 66 | 324 | 11.0 | 19.0 | 0.00 | 0.00 | 0.00 | 66 | 1013.0 |
| 20260509221651 | 66 | 351 | 11.0 | 16.0 | 0.00 | 0.00 | 0.00 | 67 | 1012.8 |
| 20260509221151 | 66 | 309 | 9.0 | 16.0 | 0.00 | 0.00 | 0.00 | 68 | 1012.9 |
| 20260509220651 | 67 | 316 | 11.0 | 16.0 | 0.00 | 0.00 | 0.00 | 67 | 1013.1 |
| 20260509220151 | 67 | 310 | 11.0 | 14.0 | 0.00 | 0.00 | 0.00 | 67 | 1013.2 |
| 20260509215652 | 66 | 317 | 10.0 | 17.0 | 0.00 | 0.00 | 0.00 | 67 | 1013.3 |
| 20260509215150 | 66 | 326 | 10.0 | 17.0 | 0.00 | 0.00 | 0.00 | 67 | 1013.4 |
| 20260509214651 | 66 | 333 | 11.0 | 17.0 | 0.00 | 0.00 | 0.00 | 69 | 1013.6 |
| 20260509214151 | 66 | 298 | 9.0 | 19.0 | 0.00 | 0.00 | 0.00 | 69 | 1013.6 |
| 20260509213651 | 66 | 327 | 8.0 | 19.0 | 0.00 | 0.00 | 0.00 | 70 | 1013.8 |
| 20260509213151 | 65 | 317 | 11.0 | 19.0 | 0.00 | 0.00 | 0.00 | 70 | 1013.8 |
| 20260509212650 | 65 | 334 | 13.0 | 22.0 | 0.00 | 0.00 | 0.00 | 70 | 1014.0 |
| 20260509212151 | 66 | 324 | 12.0 | 22.0 | 0.00 | 0.00 | 0.00 | 71 | 1014.0 |
| 20260509211651 | 65 | 326 | 11.0 | 22.0 | 0.00 | 0.00 | 0.00 | 70 | 1014.0 |
| 20260509211153 | 66 | 327 | 13.0 | 20.0 | 0.00 | 0.00 | 0.00 | 69 | 1014.0 |
| 20260509210650 | 66 | 331 | 11.0 | 20.0 | 0.00 | 0.00 | 0.00 | 69 | 1014.0 |
| 20260509210150 | 66 | 303 | 13.0 | 19.0 | 0.00 | 0.00 | 0.00 | 69 | 1014.1 |
| 20260509205650 | 66 | 326 | 10.0 | 21.0 | 0.00 | 0.00 | 0.00 | 69 | 1014.1 |
| 20260509205150 | 66 | 336 | 14.0 | 21.0 | 0.00 | 0.00 | 0.00 | 69 | 1014.1 |
| 20260509204650 | 66 | 330 | 10.0 | 21.0 | 0.00 | 0.00 | 0.00 | 70 | 1014.2 |
| 20260509204151 | 66 | 317 | 11.0 | 26.0 | 0.00 | 0.00 | 0.00 | 71 | 1014.2 |
| 20260509203651 | 66 | 312 | 13.0 | 26.0 | 0.00 | 0.00 | 0.00 | 71 | 1014.3 |
| 20260509203150 | 66 | 310 | 13.0 | 26.0 | 0.00 | 0.00 | 0.00 | 70 | 1014.3 |
| 20260509202652 | 66 | 306 | 13.0 | 21.0 | 0.00 | 0.00 | 0.00 | 70 | 1014.4 |
| 20260509202150 | 66 | 303 | 14.0 | 24.0 | 0.00 | 0.00 | 0.00 | 70 | 1014.3 |
| 20260509201651 | 66 | 326 | 15.0 | 24.0 | 0.00 | 0.00 | 0.00 | 70 | 1014.4 |
| 20260509201150 | 66 | 1 | 12.0 | 24.0 | 0.00 | 0.00 | 0.00 | 71 | 1014.3 |
| 20260509200651 | 66 | 331 | 11.0 | 21.0 | 0.00 | 0.00 | 0.00 | 71 | 1014.4 |
| 20260509200151 | 66 | 324 | 15.0 | 21.0 | 0.00 | 0.00 | 0.00 | 71 | 1014.5 |
| 20260509195650 | 67 | 344 | 13.0 | 21.0 | 0.00 | 0.00 | 0.00 | 70 | 1014.5 |
| 20260509195151 | 67 | 323 | 12.0 | 19.0 | 0.00 | 0.00 | 0.00 | 69 | 1014.6 |
| 20260509194651 | 67 | 320 | 10.0 | 18.0 | 0.00 | 0.00 | 0.00 | 69 | 1014.6 |
| 20260509194150 | 67 | 308 | 10.0 | 17.0 | 0.00 | 0.00 | 0.00 | 70 | 1014.6 |
| 20260509193650 | 67 | 327 | 11.0 | 17.0 | 0.00 | 0.00 | 0.00 | 69 | 1014.7 |
| 20260509193150 | 67 | 326 | 8.0 | 15.0 | 0.00 | 0.00 | 0.00 | 70 | 1014.8 |
| 20260509192650 | 66 | 327 | 7.0 | 15.0 | 0.00 | 0.00 | 0.00 | 72 | 1014.8 |
| 20260509192150 | 66 | 330 | 7.0 | 15.0 | 0.00 | 0.00 | 0.00 | 71 | 1015.0 |
| 20260509191651 | 66 | 329 | 8.0 | 17.0 | 0.00 | 0.00 | 0.00 | 70 | 1015.1 |
| 20260509191153 | 66 | 333 | 8.0 | 17.0 | 0.00 | 0.00 | 0.00 | 71 | 1015.0 |
| 20260509190650 | 66 | 324 | 7.0 | 17.0 | 0.00 | 0.00 | 0.00 | 73 | 1015.1 |
| 20260509185650 | 65 | 333 | 9.0 | 18.0 | 0.00 | 0.00 | 0.00 | 72 | 1015.2 |
| 20260509185151 | 65 | 338 | 10.0 | 18.0 | 0.00 | 0.00 | 0.00 | 72 | 1015.3 |
| 20260509184649 | 65 | 322 | 10.0 | 18.0 | 0.00 | 0.00 | 0.00 | 72 | 1015.4 |
| 20260509184151 | 64 | 323 | 9.0 | 16.0 | 0.00 | 0.00 | 0.00 | 72 | 1015.4 |
| 20260509183649 | 64 | 323 | 11.0 | 14.0 | 0.00 | 0.00 | 0.00 | 73 | 1015.4 |
| 20260509183150 | 64 | 333 | 9.0 | 18.0 | 0.00 | 0.00 | 0.00 | 74 | 1015.4 |
| 20260509182650 | 64 | 324 | 11.0 | 18.0 | 0.00 | 0.00 | 0.00 | 74 | 1015.5 |
| 20260509182150 | 64 | 317 | 11.0 | 18.0 | 0.00 | 0.00 | 0.00 | 75 | 1015.5 |
| 20260509181650 | 64 | 320 | 11.0 | 18.0 | 0.00 | 0.00 | 0.00 | 74 | 1015.5 |
| 20260509180649 | 64 | 331 | 12.0 | 18.0 | 0.00 | 0.00 | 0.00 | 75 | 1015.6 |
| 20260509180149 | 64 | 334 | 11.0 | 16.0 | 0.00 | 0.00 | 0.00 | 75 | 1015.5 |
| 20260509175650 | 64 | 310 | 11.0 | 13.0 | 0.00 | 0.00 | 0.00 | 75 | 1015.5 |
| 20260509175149 | 64 | 305 | 8.0 | 13.0 | 0.00 | 0.00 | 0.00 | 76 | 1015.5 |
| 20260509174649 | 64 | 316 | 8.0 | 13.0 | 0.00 | 0.00 | 0.00 | 76 | 1015.4 |
| 20260509174150 | 64 | 296 | 6.0 | 11.0 | 0.00 | 0.00 | 0.00 | 77 | 1015.4 |
| 20260509173650 | 64 | 322 | 6.0 | 11.0 | 0.00 | 0.00 | 0.00 | 76 | 1015.6 |
| 20260509173151 | 64 | 334 | 8.0 | 10.0 | 0.00 | 0.00 | 0.00 | 76 | 1015.6 |
| 20260509172652 | 63 | 298 | 5.0 | 10.0 | 0.00 | 0.00 | 0.00 | 77 | 1015.8 |
| 20260509172149 | 63 | 277 | 6.0 | 9.0 | 0.00 | 0.00 | 0.00 | 76 | 1015.8 |
| 20260509171650 | 63 | 282 | 5.0 | 7.0 | 0.00 | 0.00 | 0.00 | 78 | 1015.6 |
| 20260509171152 | 63 | 292 | 3.0 | 7.0 | 0.00 | 0.00 | 0.00 | 78 | 1015.5 |
| 20260509170649 | 62 | 291 | 2.0 | 7.0 | 0.00 | 0.00 | 0.00 | 78 | 1015.6 |
| 20260509170149 | 62 | 292 | 3.0 | 6.0 | 0.00 | 0.00 | 0.00 | 79 | 1015.6 |
| 20260509165650 | 61 | 285 | 4.0 | 6.0 | 0.00 | 0.00 | 0.00 | 80 | 1015.6 |
| 20260509165149 | 61 | 289 | 3.0 | 6.0 | 0.00 | 0.00 | 0.00 | 80 | 1015.7 |
| 20260509164649 | 60 | 292 | 3.0 | 6.0 | 0.00 | 0.00 | 0.00 | 80 | 1015.7 |
| 20260509164153 | 60 | 299 | 4.0 | 6.0 | 0.00 | 0.00 | 0.00 | 81 | 1015.7 |
| 20260509163649 | 59 | 299 | 4.0 | 6.0 | 0.00 | 0.00 | 0.00 | 80 | 1015.8 |
| 20260509163149 | 59 | 305 | 5.0 | 6.0 | 0.00 | 0.00 | 0.00 | 81 | 1015.8 |
| 20260509162650 | 59 | 305 | 1.0 | 6.0 | 0.00 | 0.00 | 0.00 | 81 | 1015.7 |
| 20260509162150 | 59 | 305 | 4.0 | 5.0 | 0.00 | 0.00 | 0.00 | 82 | 1015.7 |
| 20260509161650 | 58 | 313 | 2.0 | 4.0 | 0.00 | 0.00 | 0.00 | 83 | 1015.7 |
| 20260509161150 | 58 | 296 | 3.0 | 3.0 | 0.00 | 0.00 | 0.00 | 84 | 1015.7 |
| 20260509160149 | 57 | 289 | 0.0 | 3.0 | 0.00 | 0.00 | 0.00 | 85 | 1015.7 |
| 20260509155650 | 57 | 277 | 1.0 | 1.0 | 0.00 | 0.00 | 0.00 | 85 | 1015.6 |
| 20260509155149 | 56 | 0 | 0.0 | 0.0 | 0.00 | 0.00 | 0.00 | 86 | 1015.6 |
| 20260509153649 | 55 | 296 | 0.0 | 1.0 | 0.00 | 0.00 | 0.00 | 86 | 1015.8 |
| 20260509153149 | 55 | 0 | 0.0 | 0.0 | 0.00 | 0.00 | 0.00 | 87 | 1015.8 |
| 20260509152650 | 55 | 0 | 0.0 | 2.0 | 0.00 | 0.00 | 0.00 | 87 | 1015.9 |
| 20260509152153 | 54 | 296 | 0.0 | 2.0 | 0.00 | 0.00 | 0.00 | 87 | 1016.0 |
| 20260509151650 | 54 | 306 | 0.0 | 2.0 | 0.00 | 0.00 | 0.00 | 87 | 1015.9 |
| 20260509150650 | 53 | 0 | 0.0 | 0.0 | 0.00 | 0.00 | 0.00 | 87 | 1015.9 |
| 20260509150150 | 53 | 0 | 0.0 | 0.0 | 0.00 | 0.00 | 0.00 | 87 | 1015.9 |
| 20260509145150 | 52 | 0 | 0.0 | 3.0 | 0.00 | 0.00 | 0.00 | 87 | 1016.0 |
| 20260509144650 | 52 | 67 | 0.0 | 3.0 | 0.00 | 0.00 | 0.00 | 87 | 1016.1 |
| 20260509144153 | 52 | 0 | 0.0 | 2.0 | 0.00 | 0.00 | 0.00 | 87 | 1016.0 |
| 20260509143650 | 51 | 334 | 0.0 | 2.0 | 0.00 | 0.00 | 0.00 | 87 | 1016.2 |
| 20260509143150 | 51 | 319 | 0.0 | 2.0 | 0.00 | 0.00 | 0.00 | 87 | 1016.5 |
| 20260509142651 | 51 | 113 | 0.0 | 4.0 | 0.00 | 0.00 | 0.00 | 86 | 1016.5 |
| 20260509142150 | 51 | 105 | 0.0 | 4.0 | 0.00 | 0.00 | 0.00 | 86 | 1016.3 |
| 20260509141650 | 51 | 105 | 1.0 | 4.0 | 0.00 | 0.00 | 0.00 | 87 | 1016.1 |
| 20260509141152 | 50 | 121 | 2.0 | 3.0 | 0.00 | 0.00 | 0.00 | 87 | 1016.2 |
| 20260509140651 | 50 | 0 | 0.0 | 0.0 | 0.00 | 0.00 | 0.00 | 86 | 1016.2 |
| 20260509140150 | 50 | 4 | 0.0 | 2.0 | 0.00 | 0.00 | 0.00 | 86 | 1016.3 |
| 20260509135651 | 50 | 127 | 0.0 | 2.0 | 0.00 | 0.00 | 0.00 | 86 | 1016.3 |
| 20260509135150 | 49 | 106 | 0.0 | 2.0 | 0.00 | 0.00 | 0.00 | 86 | 1016.3 |
| 20260509134650 | 49 | 81 | 0.0 | 3.0 | 0.00 | 0.00 | 0.00 | 86 | 1016.1 |
| 20260509134152 | 49 | 110 | 1.0 | 3.0 | 0.00 | 0.00 | 0.00 | 86 | 1016.0 |
| 20260509133650 | 49 | 105 | 1.0 | 3.0 | 0.00 | 0.00 | 0.00 | 86 | 1016.0 |
| 20260509133150 | 49 | 99 | 2.0 | 3.0 | 0.00 | 0.00 | 0.00 | 86 | 1016.1 |
| 20260509132651 | 49 | 105 | 2.0 | 3.0 | 0.00 | 0.00 | 0.00 | 86 | 1016.2 |
| 20260509132150 | 49 | 93 | 2.0 | 2.0 | 0.00 | 0.00 | 0.00 | 86 | 1016.2 |
| 20260509131650 | 49 | 92 | 1.0 | 5.0 | 0.00 | 0.00 | 0.00 | 86 | 1016.2 |
| 20260509131153 | 49 | 112 | 2.0 | 5.0 | 0.00 | 0.00 | 0.00 | 86 | 1016.2 |
| 20260509130650 | 49 | 100 | 2.0 | 5.0 | 0.00 | 0.00 | 0.00 | 86 | 1016.1 |
| 20260509130150 | 49 | 112 | 4.0 | 4.0 | 0.00 | 0.00 | 0.00 | 86 | 1016.2 |
| 20260509125651 | 49 | 105 | 3.0 | 4.0 | 0.00 | 0.00 | 0.00 | 86 | 1016.2 |
| 20260509125150 | 48 | 96 | 2.0 | 2.0 | 0.00 | 0.00 | 0.00 | 86 | 1016.3 |
| 20260509124650 | 49 | 86 | 1.0 | 4.0 | 0.00 | 0.00 | 0.00 | 86 | 1016.4 |
| 20260509124152 | 49 | 86 | 1.0 | 4.0 | 0.00 | 0.00 | 0.00 | 85 | 1016.4 |
| 20260509123650 | 48 | 99 | 1.0 | 4.0 | 0.00 | 0.00 | 0.00 | 85 | 1016.4 |
| 20260509123150 | 49 | 105 | 2.0 | 5.0 | 0.00 | 0.00 | 0.00 | 85 | 1016.4 |
| 20260509122651 | 48 | 105 | 3.0 | 5.0 | 0.00 | 0.00 | 0.00 | 86 | 1016.4 |
| 20260509122150 | 49 | 107 | 3.0 | 5.0 | 0.00 | 0.00 | 0.00 | 85 | 1016.5 |
| 20260509121651 | 48 | 109 | 2.0 | 5.0 | 0.00 | 0.00 | 0.00 | 85 | 1016.6 |
| 20260509121152 | 48 | 106 | 3.0 | 5.0 | 0.00 | 0.00 | 0.00 | 85 | 1016.6 |
| 20260509120650 | 49 | 99 | 3.0 | 5.0 | 0.00 | 0.00 | 0.00 | 85 | 1016.7 |
| 20260509120150 | 49 | 103 | 4.0 | 5.0 | 0.00 | 0.00 | 0.00 | 85 | 1016.7 |
| 20260509115651 | 49 | 114 | 4.0 | 5.0 | 0.00 | 0.00 | 0.00 | 85 | 1016.7 |
| 20260509115150 | 49 | 110 | 4.0 | 4.0 | 0.00 | 0.00 | 0.00 | 85 | 1016.7 |
| 20260509114651 | 49 | 99 | 4.0 | 4.0 | 0.00 | 0.00 | 0.00 | 85 | 1016.8 |
| 20260509113650 | 49 | 103 | 1.0 | 4.0 | 0.00 | 0.00 | 0.00 | 85 | 1017.1 |
| 20260509113150 | 49 | 100 | 2.0 | 4.0 | 0.00 | 0.00 | 0.00 | 85 | 1017.1 |
| 20260509112651 | 50 | 109 | 3.0 | 4.0 | 0.00 | 0.00 | 0.00 | 85 | 1017.1 |
| 20260509112150 | 49 | 102 | 2.0 | 3.0 | 0.00 | 0.00 | 0.00 | 85 | 1017.0 |
| 20260509111650 | 50 | 91 | 2.0 | 3.0 | 0.00 | 0.00 | 0.00 | 85 | 1016.9 |
| 20260509111152 | 50 | 100 | 2.0 | 3.0 | 0.00 | 0.00 | 0.00 | 85 | 1016.9 |
| 20260509110651 | 50 | 60 | 2.0 | 5.0 | 0.00 | 0.00 | 0.00 | 85 | 1016.9 |
| 20260509110150 | 49 | 91 | 2.0 | 5.0 | 0.00 | 0.00 | 0.00 | 85 | 1016.9 |
| 20260509105150 | 49 | 113 | 2.0 | 5.0 | 0.00 | 0.00 | 0.00 | 85 | 1017.0 |
| 20260509104650 | 49 | 102 | 3.0 | 5.0 | 0.00 | 0.00 | 0.00 | 85 | 1016.9 |
| 20260509104152 | 49 | 98 | 4.0 | 5.0 | 0.00 | 0.00 | 0.00 | 85 | 1016.9 |
| 20260509103650 | 49 | 102 | 3.0 | 4.0 | 0.00 | 0.00 | 0.00 | 84 | 1016.9 |
| 20260509103150 | 49 | 105 | 1.0 | 4.0 | 0.00 | 0.00 | 0.00 | 84 | 1017.1 |
| 20260509102651 | 49 | 112 | 3.0 | 4.0 | 0.00 | 0.00 | 0.00 | 84 | 1017.1 |
| 20260509102150 | 49 | 96 | 3.0 | 6.0 | 0.00 | 0.00 | 0.00 | 84 | 1017.1 |
| 20260509101650 | 49 | 109 | 3.0 | 6.0 | 0.00 | 0.00 | 0.00 | 84 | 1017.2 |
| 20260509101152 | 50 | 95 | 4.0 | 6.0 | 0.00 | 0.00 | 0.00 | 84 | 1017.2 |
| 20260509100650 | 50 | 103 | 4.0 | 6.0 | 0.00 | 0.00 | 0.00 | 84 | 1017.3 |
| 20260509100150 | 50 | 113 | 4.0 | 6.0 | 0.00 | 0.00 | 0.00 | 84 | 1017.4 |
| 20260509095651 | 50 | 113 | 4.0 | 5.0 | 0.00 | 0.00 | 0.00 | 84 | 1017.4 |
| 20260509095150 | 50 | 103 | 4.0 | 5.0 | 0.00 | 0.00 | 0.00 | 84 | 1017.5 |
| 20260509094650 | 50 | 102 | 4.0 | 5.0 | 0.00 | 0.00 | 0.00 | 84 | 1017.5 |
| 20260509094152 | 50 | 98 | 3.0 | 5.0 | 0.00 | 0.00 | 0.00 | 84 | 1017.5 |
| 20260509093650 | 50 | 99 | 4.0 | 5.0 | 0.00 | 0.00 | 0.00 | 84 | 1017.5 |
| 20260509093150 | 50 | 100 | 4.0 | 5.0 | 0.00 | 0.00 | 0.00 | 84 | 1017.5 |
| 20260509092651 | 50 | 99 | 4.0 | 5.0 | 0.00 | 0.00 | 0.00 | 83 | 1017.5 |
| 20260509092152 | 50 | 106 | 4.0 | 5.0 | 0.00 | 0.00 | 0.00 | 83 | 1017.5 |
| 20260509091650 | 50 | 102 | 3.0 | 5.0 | 0.00 | 0.00 | 0.00 | 83 | 1017.6 |
| 20260509091152 | 50 | 110 | 3.0 | 5.0 | 0.00 | 0.00 | 0.00 | 83 | 1017.6 |
| 20260509090650 | 50 | 159 | 3.0 | 5.0 | 0.00 | 0.00 | 0.00 | 83 | 1017.6 |
| 20260509090150 | 50 | 110 | 3.0 | 5.0 | 0.00 | 0.00 | 0.00 | 83 | 1017.6 |
| 20260509085651 | 50 | 112 | 2.0 | 5.0 | 0.00 | 0.00 | 0.00 | 83 | 1017.5 |
| 20260509085150 | 50 | 134 | 2.0 | 5.0 | 0.00 | 0.00 | 0.00 | 83 | 1017.6 |
| 20260509084650 | 50 | 105 | 2.0 | 5.0 | 0.00 | 0.00 | 0.00 | 83 | 1017.7 |
| 20260509084153 | 50 | 113 | 3.0 | 5.0 | 0.00 | 0.00 | 0.00 | 83 | 1017.7 |
| 20260509083650 | 50 | 95 | 2.0 | 4.0 | 0.00 | 0.00 | 0.00 | 83 | 1017.8 |
| 20260509083150 | 50 | 103 | 3.0 | 4.0 | 0.00 | 0.00 | 0.00 | 83 | 1017.8 |
| 20260509082651 | 50 | 106 | 2.0 | 4.0 | 0.00 | 0.00 | 0.00 | 82 | 1018.0 |
| 20260509082152 | 50 | 110 | 3.0 | 4.0 | 0.00 | 0.00 | 0.00 | 82 | 1018.0 |
| 20260509081650 | 50 | 106 | 2.0 | 4.0 | 0.00 | 0.00 | 0.00 | 82 | 1018.0 |
| 20260509081152 | 50 | 99 | 2.0 | 4.0 | 0.00 | 0.00 | 0.00 | 82 | 1018.0 |
| 20260509080650 | 50 | 123 | 1.0 | 4.0 | 0.00 | 0.00 | 0.00 | 82 | 1018.0 |
| 20260509080150 | 50 | 177 | 2.0 | 4.0 | 0.00 | 0.00 | 0.00 | 82 | 1017.9 |
| 20260509075651 | 50 | 114 | 1.0 | 4.0 | 0.00 | 0.00 | 0.00 | 82 | 1018.0 |
| 20260509075150 | 50 | 93 | 0.0 | 4.0 | 0.00 | 0.00 | 0.00 | 82 | 1018.0 |
| 20260509074650 | 50 | 107 | 1.0 | 3.0 | 0.00 | 0.00 | 0.00 | 82 | 1017.9 |
| 20260509074152 | 50 | 114 | 1.0 | 3.0 | 0.00 | 0.00 | 0.00 | 82 | 1017.9 |
| 20260509073650 | 51 | 123 | 1.0 | 3.0 | 0.00 | 0.00 | 0.00 | 82 | 1018.0 |
| 20260509073150 | 51 | 98 | 1.0 | 3.0 | 0.00 | 0.00 | 0.00 | 82 | 1018.0 |
| 20260509072653 | 51 | 100 | 1.0 | 3.0 | 0.00 | 0.00 | 0.00 | 82 | 1018.0 |
| 20260509072150 | 51 | 100 | 1.0 | 3.0 | 0.00 | 0.00 | 0.00 | 82 | 1018.1 |
| 20260509071650 | 51 | 96 | 1.0 | 4.0 | 0.00 | 0.00 | 0.00 | 82 | 1018.2 |
| 20260509071152 | 51 | 116 | 2.0 | 4.0 | 0.00 | 0.00 | 0.00 | 82 | 1018.2 |
| 20260509070650 | 51 | 106 | 1.0 | 4.0 | 0.00 | 0.00 | 0.00 | 82 | 1018.2 |
| 20260509070150 | 51 | 107 | 1.0 | 6.0 | 0.00 | 0.00 | 0.00 | 82 | 1018.1 |
| 20260509065651 | 51 | 107 | 3.0 | 6.0 | 0.00 | 0.00 | 0.00 | 81 | 1018.3 |
| 20260509065150 | 51 | 168 | 1.0 | 6.0 | 0.00 | 0.00 | 0.00 | 81 | 1018.4 |
| 20260509064651 | 51 | 100 | 3.0 | 5.0 | 0.00 | 0.00 | 0.00 | 81 | 1018.4 |
| 20260509064152 | 51 | 103 | 2.0 | 5.0 | 0.00 | 0.00 | 0.00 | 81 | 1018.5 |
| 20260509063650 | 51 | 93 | 3.0 | 5.0 | 0.00 | 0.00 | 0.00 | 81 | 1018.5 |
| 20260509063150 | 51 | 96 | 3.0 | 5.0 | 0.00 | 0.00 | 0.00 | 81 | 1018.5 |
| 20260509062651 | 51 | 103 | 3.0 | 5.0 | 0.00 | 0.00 | 0.00 | 81 | 1018.5 |
| 20260509062150 | 52 | 100 | 3.0 | 5.0 | 0.00 | 0.00 | 0.00 | 81 | 1018.6 |
| 20260509061650 | 52 | 100 | 3.0 | 5.0 | 0.00 | 0.00 | 0.00 | 81 | 1018.6 |
| 20260509061152 | 52 | 109 | 3.0 | 5.0 | 0.00 | 0.00 | 0.00 | 81 | 1018.7 |
| 20260509060650 | 52 | 110 | 3.0 | 4.0 | 0.00 | 0.00 | 0.00 | 81 | 1018.7 |
| 20260509060150 | 52 | 116 | 3.0 | 5.0 | 0.00 | 0.00 | 0.00 | 80 | 1018.8 |
| 20260509055651 | 52 | 100 | 3.0 | 5.0 | 0.00 | 0.00 | 0.00 | 80 | 1018.7 |
| 20260509055150 | 52 | 105 | 3.0 | 5.0 | 0.00 | 0.00 | 0.00 | 80 | 1018.7 |
| 20260509054651 | 52 | 106 | 3.0 | 4.0 | 0.00 | 0.00 | 0.00 | 80 | 1018.7 |
| 20260509054152 | 52 | 107 | 3.0 | 6.0 | 0.00 | 0.00 | 0.00 | 80 | 1018.7 |
| 20260509053649 | 53 | 105 | 2.0 | 6.0 | 0.00 | 0.00 | 0.00 | 80 | 1018.7 |
| 20260509053150 | 53 | 105 | 3.0 | 6.0 | 0.00 | 0.00 | 0.00 | 80 | 1018.7 |
| 20260509052150 | 53 | 98 | 3.0 | 5.0 | 0.00 | 0.00 | 0.00 | 79 | 1018.9 |
| 20260509051650 | 53 | 106 | 4.0 | 4.0 | 0.00 | 0.00 | 0.00 | 79 | 1018.8 |
| 20260509051152 | 53 | 116 | 4.0 | 5.0 | 0.00 | 0.00 | 0.00 | 79 | 1018.8 |
| 20260509050650 | 53 | 100 | 3.0 | 5.0 | 0.00 | 0.00 | 0.00 | 79 | 1018.8 |
| 20260509050150 | 54 | 119 | 3.0 | 5.0 | 0.00 | 0.00 | 0.00 | 79 | 1018.8 |
| 20260509045150 | 54 | 114 | 2.0 | 5.0 | 0.00 | 0.00 | 0.00 | 78 | 1018.8 |
| 20260509044650 | 54 | 114 | 3.0 | 5.0 | 0.00 | 0.00 | 0.00 | 78 | 1018.8 |
| 20260509044152 | 54 | 102 | 2.0 | 5.0 | 0.00 | 0.00 | 0.00 | 78 | 1018.8 |
| 20260509043650 | 54 | 106 | 4.0 | 4.0 | 0.00 | 0.00 | 0.00 | 78 | 1018.7 |
| 20260509043150 | 54 | 106 | 4.0 | 4.0 | 0.00 | 0.00 | 0.00 | 78 | 1018.7 |
| 20260509042651 | 54 | 309 | 1.0 | 3.0 | 0.00 | 0.00 | 0.00 | 77 | 1018.6 |
| 20260509042150 | 55 | 319 | 0.0 | 3.0 | 0.00 | 0.00 | 0.00 | 77 | 1018.6 |
| 20260509041650 | 55 | 327 | 0.0 | 3.0 | 0.00 | 0.00 | 0.00 | 77 | 1018.6 |
| 20260509041152 | 55 | 343 | 0.0 | 4.0 | 0.00 | 0.00 | 0.00 | 77 | 1018.6 |
| 20260509040649 | 55 | 91 | 1.0 | 4.0 | 0.00 | 0.00 | 0.00 | 77 | 1018.5 |
| 20260509040150 | 56 | 357 | 0.0 | 4.0 | 0.00 | 0.00 | 0.00 | 76 | 1018.6 |
| 20260509035150 | 56 | 357 | 0.0 | 6.0 | 0.00 | 0.00 | 0.00 | 76 | 1018.5 |
| 20260509034650 | 56 | 340 | 1.0 | 6.0 | 0.00 | 0.00 | 0.00 | 76 | 1018.5 |
| 20260509033649 | 57 | 317 | 2.0 | 6.0 | 0.00 | 0.00 | 0.00 | 76 | 1018.4 |
| 20260509033149 | 57 | 326 | 3.0 | 6.0 | 0.00 | 0.00 | 0.00 | 75 | 1018.4 |
| 20260509032654 | 57 | 340 | 3.0 | 6.0 | 0.00 | 0.00 | 0.00 | 75 | 1018.4 |
| 20260509032150 | 58 | 336 | 4.0 | 6.0 | 0.00 | 0.00 | 0.00 | 75 | 1018.4 |
| 20260509031649 | 58 | 309 | 4.0 | 6.0 | 0.00 | 0.00 | 0.00 | 75 | 1018.4 |
| 20260509031152 | 58 | 327 | 2.0 | 6.0 | 0.00 | 0.00 | 0.00 | 75 | 1018.4 |
| 20260509030650 | 58 | 334 | 4.0 | 8.0 | 0.00 | 0.00 | 0.00 | 74 | 1018.4 |
| 20260509030150 | 58 | 319 | 5.0 | 8.0 | 0.00 | 0.00 | 0.00 | 74 | 1018.4 |
| 20260509025651 | 58 | 334 | 3.0 | 8.0 | 0.00 | 0.00 | 0.00 | 74 | 1018.4 |
| 20260509025149 | 58 | 330 | 5.0 | 7.0 | 0.00 | 0.00 | 0.00 | 74 | 1018.4 |
| 20260509024650 | 59 | 337 | 4.0 | 6.0 | 0.00 | 0.00 | 0.00 | 74 | 1018.5 |
| 20260509024152 | 59 | 310 | 3.0 | 7.0 | 0.00 | 0.00 | 0.00 | 74 | 1018.6 |
| 20260509023650 | 59 | 316 | 4.0 | 7.0 | 0.00 | 0.00 | 0.00 | 74 | 1018.6 |
| 20260509023150 | 59 | 299 | 4.0 | 7.0 | 0.00 | 0.00 | 0.00 | 74 | 1018.6 |
| 20260509022651 | 59 | 322 | 5.0 | 8.0 | 0.00 | 0.00 | 0.00 | 73 | 1018.6 |
| 20260509022150 | 59 | 309 | 5.0 | 8.0 | 0.00 | 0.00 | 0.00 | 73 | 1018.7 |
| 20260509021650 | 59 | 301 | 4.0 | 8.0 | 0.00 | 0.00 | 0.00 | 73 | 1018.7 |
| 20260509021150 | 59 | 284 | 4.0 | 8.0 | 0.00 | 0.00 | 0.00 | 73 | 1018.7 |
| 20260509020650 | 59 | 294 | 6.0 | 7.0 | 0.00 | 0.00 | 0.00 | 73 | 1018.7 |
| 20260509020150 | 60 | 292 | 4.0 | 7.0 | 0.00 | 0.00 | 0.00 | 73 | 1018.7 |
| 20260509015150 | 60 | 295 | 3.0 | 8.0 | 0.00 | 0.00 | 0.00 | 72 | 1018.6 |